Location: Ferchesar
(52.6477°N, 12.4298°E)
Time: 09:04:02
(UTC+01:00)

S-56A Canister/Altair - Pass Details

Date: 16 December 2021
Orbit: 633 x 2499 km, 38.9° (Epoch: 19 January)

Event Time Altitude Azimuth Distance (km) Brightness Sun altitude
Rises 17:01:50 0° 173° (S) 6,139 12.4 -9.3°
Reaches altitude 10° 17:10:57 10° 144° (SE) 5,122 11.6 -10.5°
Maximum altitude 17:14:00 11° 132° (SE) 4,986 11.4 -10.9°
Drops below altitude 10° 17:16:59 10° 119° (ESE) 4,982 11.3 -11.3°
Enters shadow 17:22:10 - 99° (E) 5,286 11.3 -12.1°
Sets 17:25:11 0° 89° (E) 5,629 - -12.5°
